,,PA_Meas_PMT16A,,PR_Meas_QMR101_102,,RH_Meas_QMH101,,SR_Meas_QMS101,,TA_Meas_QMH101,,GenWind,,GenWind,
time,status,PA,status,PR,status,RH,status,SR,status,TA,status,DirAvg,status,SpdAvg,
2011-03-11, 00:00:05,VALID,918.145,VALID,0,VALID,97.2672,VALID,0,VALID,19.2933,VALID,111,VALID,0.617188,
2011-03-11, 00:01:05,VALID,918.136,VALID,0,VALID,97.29,VALID,0.107441,VALID,19.3323,VALID,111,VALID,0.658984,
2011-03-11, 00:02:05,VALID,918.126,VALID,0,VALID,97.2824,VALID,0,VALID,19.3323,VALID,111,VALID,0.508594,
2011-03-11, 00:03:05,VALID,918.15,VALID,0,VALID,97.29,VALID,0,VALID,19.3323,VALID,111,VALID,0.264844,
2011-03-11, 00:04:05,VALID,918.119,VALID,0,VALID,97.3053,VALID,0,VALID,19.3518,VALID,111,VALID,0.555078,
2011-03-11, 00:05:05,VALID,918.122,VALID,0,VALID,97.2824,VALID,0,VALID,19.3518,VALID,111,VALID,0.694141,
2011-03-11, 00:06:05,VALID,918.121,VALID,0,VALID,97.2977,VALID,0,VALID,19.3323,VALID,111,VALID,0.355859,
2011-03-11, 00:07:05,VALID,918.118,VALID,0,VALID,97.2977,VALID,0,VALID,19.3128,VALID,111,VALID,0.700391,
2011-03-11, 00:08:05,VALID,918.099,VALID,0,VALID,97.29,VALID,0.107441,VALID,19.2918,VALID,111,VALID,0.452734,
2011-03-11, 00:09:05,VALID,918.108,VALID,0,VALID,97.2748,VALID,0,VALID,19.2933,VALID,111,VALID,0.307031,
2011-03-11, 00:10:05,VALID,918.122,VALID,0,VALID,97.2672,VALID,0,VALID,19.2933,VALID,111,VALID,0.423438,
2011-03-11, 00:11:05,VALID,918.086,VALID,0.2,VALID,97.2672,VALID,0,VALID,19.3143,VALID,111,VALID,0.317578,
2011-03-11, 00:12:05,VALID,918.079,VALID,0,VALID,97.2824,VALID,0,VALID,19.2543,VALID,111,VALID,0.282813,
2011-03-11, 00:13:05,VALID,918.067,VALID,0,VALID,97.29,VALID,0,VALID,19.2948,VALID,111,VALID,0.324219,
2011-03-11, 00:14:05,VALID,918.042,VALID,0,VALID,97.2672,VALID,0,VALID,19.2543,VALID,111,VALID,0.188281,
2011-03-11, 00:15:05,VALID,918.03,VALID,0,VALID,97.2824,VALID,0.107441,VALID,19.2528,VALID,111,VALID,0,
2011-03-11, 00:16:05,VALID,918.014,VALID,0,VALID,97.2672,VALID,0.107441,VALID,19.2918,VALID,111,VALID,0,
2011-03-11, 00:17:05,VALID,917.986,VALID,0,VALID,97.2824,VALID,0.107441,VALID,19.2723,VALID,111,VALID,0,
2011-03-11, 00:18:05,VALID,917.998,VALID,0,VALID,97.2824,VALID,0.107441,VALID,19.2723,VALID,111,VALID,0,
2011-03-11, 00:19:05,VALID,917.982,VALID,0,VALID,97.29,VALID,0.107441,VALID,19.3113,VALID,111,VALID,0,
2011-03-11, 00:20:05,VALID,917.973,VALID,0,VALID,97.2977,VALID,0,VALID,19.2918,VALID,111,VALID,0.458594,
2011-03-11, 00:21:05,VALID,917.938,VALID,0,VALID,97.29,VALID,0.107441,VALID,19.3113,VALID,111,VALID,0.318359,
2011-03-11, 00:22:05,VALID,917.931,VALID,0,VALID,97.3053,VALID,0.107441,VALID,19.2904,VALID,111,VALID,0.755859,
2011-03-11, 00:23:05,VALID,917.914,VALID,0,VALID,97.2977,VALID,0.107441,VALID,19.2904,VALID,112,VALID,0.490625,
2011-03-11, 00:24:05,VALID,917.89,VALID,0,VALID,97.29,VALID,0.214882,VALID,19.3113,VALID,115,VALID,0.4875,
2011-03-11, 00:25:05,VALID,917.885,VALID,0,VALID,97.2977,VALID,0.107441,VALID,19.3113,VALID,116,VALID,0.467187,
2011-03-11, 00:26:05,VALID,917.87,VALID,0,VALID,97.2977,VALID,0.107441,VALID,19.2918,VALID,116,VALID,0.557422,
2011-03-11, 00:27:05,VALID,917.848,VALID,0,VALID,97.2977,VALID,0.107441,VALID,19.2723,VALID,117,VALID,0.814453,
2011-03-11, 00:28:05,VALID,917.841,VALID,0,VALID,97.2824,VALID,0.107441,VALID,19.2723,VALID,118,VALID,0.971875,
2011-03-11, 00:29:05,VALID,917.806,VALID,0,VALID,97.3053,VALID,0.107441,VALID,19.2319,VALID,158,VALID,0.715234,
2011-03-11, 00:30:05,VALID,917.772,VALID,0,VALID,97.29,VALID,0,VALID,19.2738,VALID,158,VALID,0.910937,
2011-03-11, 00:31:05,VALID,917.763,VALID,0,VALID,97.2977,VALID,0,VALID,19.2738,VALID,158,VALID,0.572266,
2011-03-11, 00:32:05,VALID,917.737,VALID,0,VALID,97.2977,VALID,0,VALID,19.2738,VALID,156,VALID,0.604297,
2011-03-11, 00:33:05,VALID,917.716,VALID,0,VALID,97.2824,VALID,0,VALID,19.2543,VALID,132,VALID,1.00078,
2011-03-11, 00:34:05,VALID,917.678,VALID,0,VALID,97.29,VALID,0,VALID,19.2348,VALID,132,VALID,0.691797,
2011-03-11, 00:35:05,VALID,917.649,VALID,0,VALID,97.3205,VALID,0,VALID,19.2348,VALID,132,VALID,1.00625,
2011-03-11, 00:36:05,VALID,917.628,VALID,0,VALID,97.2977,VALID,0,VALID,19.2153,VALID,132,VALID,0.565234,
2011-03-11, 00:37:05,VALID,917.609,VALID,0,VALID,97.3129,VALID,0,VALID,19.2334,VALID,132,VALID,1.09609,
2011-03-11, 00:38:05,VALID,917.579,VALID,0,VALID,97.3053,VALID,0,VALID,19.2139,VALID,132,VALID,1.0793,
2011-03-11, 00:39:05,VALID,917.542,VALID,0,VALID,97.3053,VALID,0.107441,VALID,19.2543,VALID,132,VALID,0.794141,
2011-03-11, 00:40:05,VALID,917.51,VALID,0,VALID,97.2824,VALID,0,VALID,19.2348,VALID,132,VALID,0.976172,
2011-03-11, 00:41:05,VALID,917.532,VALID,0,VALID,97.29,VALID,0,VALID,19.2348,VALID,132,VALID,1.05586,
2011-03-11, 00:42:05,VALID,917.527,VALID,0,VALID,97.3129,VALID,0,VALID,19.2153,VALID,132,VALID,1.04141,
2011-03-11, 00:43:05,VALID,917.481,VALID,0.2,VALID,97.3205,VALID,0.107441,VALID,19.2348,VALID,145,VALID,0.558594,
2011-03-11, 00:44:05,VALID,917.476,VALID,0,VALID,97.3053,VALID,0,VALID,19.2348,VALID,145,VALID,0.722656,
2011-03-11, 00:45:05,VALID,917.436,VALID,0,VALID,97.2977,VALID,0,VALID,19.2543,VALID,145,VALID,0.9125,
2011-03-11, 00:46:05,VALID,917.446,VALID,0,VALID,97.2977,VALID,0,VALID,19.2153,VALID,145,VALID,0.457812,
2011-03-11, 00:47:05,VALID,917.445,VALID,0,VALID,97.3129,VALID,0,VALID,19.2543,VALID,145,VALID,0.942187,
2011-03-11, 00:48:05,VALID,917.412,VALID,0,VALID,97.3129,VALID,0,VALID,19.2348,VALID,145,VALID,0.915234,
2011-03-11, 00:49:05,VALID,917.434,VALID,0,VALID,97.3129,VALID,0,VALID,19.2753,VALID,145,VALID,0.630078,
2011-03-11, 00:50:05,VALID,917.394,VALID,0,VALID,97.29,VALID,0,VALID,19.2543,VALID,145,VALID,0.603516,
2011-03-11, 00:51:05,VALID,917.376,VALID,0,VALID,97.3129,VALID,0,VALID,19.2738,VALID,145,VALID,0.688281,
2011-03-11, 00:52:05,VALID,917.38,VALID,0,VALID,97.3129,VALID,0.107441,VALID,19.3128,VALID,145,VALID,0.292578,
2011-03-11, 00:53:05,VALID,917.377,VALID,0,VALID,97.3205,VALID,0,VALID,19.3128,VALID,145,VALID,0.234766,
2011-03-11, 00:54:05,VALID,917.366,VALID,0,VALID,97.3434,VALID,0,VALID,19.3323,VALID,145,VALID,0.700391,
2011-03-11, 00:55:05,VALID,917.357,VALID,0,VALID,97.3053,VALID,0,VALID,19.3323,VALID,145,VALID,1.00469,
2011-03-11, 00:56:05,VALID,917.359,VALID,0,VALID,97.3205,VALID,0.107441,VALID,19.3518,VALID,120,VALID,0.466406,
2011-03-11, 00:57:05,VALID,917.319,VALID,0,VALID,97.3129,VALID,0,VALID,19.3533,VALID,120,VALID,0.485156,
2011-03-11, 00:58:05,VALID,917.322,VALID,0,VALID,97.3205,VALID,0,VALID,19.3128,VALID,120,VALID,0.729688,
2011-03-11, 00:59:05,VALID,917.302,VALID,0,VALID,97.3205,VALID,0,VALID,19.2933,VALID,120,VALID,0.848437,
2011-03-11, 01:00:05,VALID,917.281,VALID,0,VALID,97.3205,VALID,0,VALID,19.2723,VALID,120,VALID,0.69375,
2011-03-11, 01:01:05,VALID,917.278,VALID,0,VALID,97.3358,VALID,0.107441,VALID,19.2933,VALID,120,VALID,0.758594,
2011-03-11, 01:02:05,VALID,917.259,VALID,0,VALID,97.3129,VALID,0,VALID,19.3128,VALID,120,VALID,0.957031,
2011-03-11, 01:03:05,VALID,917.28,VALID,0,VALID,97.3129,VALID,0,VALID,19.2723,VALID,121,VALID,0.698828,
2011-03-11, 01:04:05,VALID,917.218,VALID,0,VALID,97.3281,VALID,0,VALID,19.2933,VALID,121,VALID,0.502344,
2011-03-11, 01:05:05,VALID,917.19,VALID,0,VALID,97.3281,VALID,0,VALID,19.2933,VALID,148,VALID,0.527734,
2011-03-11, 01:06:05,VALID,917.211,VALID,0,VALID,97.3205,VALID,0,VALID,19.2933,VALID,148,VALID,0.717188,
2011-03-11, 01:07:05,VALID,917.209,VALID,0,VALID,97.3129,VALID,0,VALID,19.3128,VALID,148,VALID,0.625781,
2011-03-11, 01:08:05,VALID,917.194,VALID,0.2,VALID,97.3205,VALID,0,VALID,19.2933,VALID,148,VALID,0.650391,
2011-03-11, 01:09:05,VALID,917.189,VALID,0,VALID,97.3434,VALID,0,VALID,19.3143,VALID,148,VALID,0.653906,
2011-03-11, 01:10:05,VALID,917.174,VALID,0,VALID,97.3281,VALID,0,VALID,19.2948,VALID,148,VALID,0.897266,
2011-03-11, 01:11:05,VALID,917.157,VALID,0,VALID,97.3129,VALID,0,VALID,19.2543,VALID,131,VALID,1.02852,
2011-03-11, 01:12:05,VALID,917.164,VALID,0,VALID,97.3434,VALID,0,VALID,19.2348,VALID,121,VALID,0.906641,
2011-03-11, 01:13:05,VALID,917.131,VALID,0,VALID,97.3434,VALID,0,VALID,19.2543,VALID,127,VALID,0.846094,
2011-03-11, 01:14:05,VALID,917.11,VALID,0,VALID,97.3586,VALID,0,VALID,19.2348,VALID,117,VALID,0.694141,
2011-03-11, 01:15:05,VALID,917.121,VALID,0,VALID,97.3205,VALID,0,VALID,19.2153,VALID,117,VALID,0.954687,
2011-03-11, 01:16:05,VALID,917.086,VALID,0,VALID,97.3434,VALID,0.107441,VALID,19.2139,VALID,117,VALID,0.89375,
2011-03-11, 01:17:05,VALID,917.092,VALID,0,VALID,97.3586,VALID,0,VALID,19.2348,VALID,117,VALID,1.01211,
2011-03-11, 01:18:05,VALID,917.104,VALID,0,VALID,97.351,VALID,0,VALID,19.2348,VALID,117,VALID,0.598047,
2011-03-11, 01:19:05,VALID,917.119,VALID,0.2,VALID,97.3434,VALID,0,VALID,19.2153,VALID,117,VALID,0.605078,
2011-03-11, 01:20:05,VALID,917.079,VALID,0,VALID,97.351,VALID,0,VALID,19.2153,VALID,117,VALID,0.710547,
2011-03-11, 01:21:05,VALID,917.117,VALID,0,VALID,97.3434,VALID,0,VALID,19.1958,VALID,117,VALID,0.7,
2011-03-11, 01:22:05,VALID,917.092,VALID,0,VALID,97.3434,VALID,0,VALID,19.1763,VALID,117,VALID,0.839844,
2011-03-11, 01:23:05,VALID,917.095,VALID,0,VALID,97.3358,VALID,0,VALID,19.1763,VALID,117,VALID,0.726953,
2011-03-11, 01:24:05,VALID,917.079,VALID,0,VALID,97.351,VALID,0,VALID,19.1778,VALID,117,VALID,0.685156,
2011-03-11, 01:25:05,VALID,917.045,VALID,0,VALID,97.3358,VALID,0,VALID,19.1568,VALID,117,VALID,0.798437,
2011-03-11, 01:26:05,VALID,917.037,VALID,0,VALID,97.351,VALID,0,VALID,19.1373,VALID,117,VALID,1.01602,
2011-03-11, 01:27:05,VALID,917.001,VALID,0,VALID,97.3663,VALID,0,VALID,19.1583,VALID,142,VALID,0.780859,
2011-03-11, 01:28:05,VALID,917.001,VALID,0,VALID,97.3663,VALID,0,VALID,19.1583,VALID,131,VALID,0.382422,
2011-03-11, 01:29:05,VALID,916.976,VALID,0,VALID,97.351,VALID,0,VALID,19.1373,VALID,175,VALID,1.07109,
2011-03-11, 01:30:05,VALID,916.941,VALID,0,VALID,97.3586,VALID,0,VALID,19.1568,VALID,150,VALID,1.51602,
2011-03-11, 01:31:05,VALID,916.913,VALID,0,VALID,97.351,VALID,0.107441,VALID,19.1373,VALID,148,VALID,0.982422,
2011-03-11, 01:32:05,VALID,916.877,VALID,0,VALID,97.351,VALID,0,VALID,19.1373,VALID,157,VALID,0.995313,
2011-03-11, 01:33:05,VALID,916.842,VALID,0.2,VALID,97.3434,VALID,0,VALID,19.1373,VALID,152,VALID,1.01406,
2011-03-11, 01:34:05,VALID,916.871,VALID,0,VALID,97.351,VALID,0,VALID,19.1373,VALID,159,VALID,1.18945,
2011-03-11, 01:35:05,VALID,916.835,VALID,0,VALID,97.3586,VALID,0,VALID,19.1373,VALID,143,VALID,0.830469,
2011-03-11, 01:36:05,VALID,916.804,VALID,0,VALID,97.3815,VALID,0,VALID,19.1568,VALID,143,VALID,0.817969,
2011-03-11, 01:37:05,VALID,916.769,VALID,0,VALID,97.3739,VALID,0.107441,VALID,19.1568,VALID,162,VALID,1.21367,
2011-03-11, 01:38:05,VALID,916.765,VALID,0,VALID,97.3739,VALID,0.107441,VALID,19.1763,VALID,165,VALID,1.26719,
2011-03-11, 01:39:05,VALID,916.737,VALID,0,VALID,97.3663,VALID,0,VALID,19.1958,VALID,162,VALID,1.24609,
2011-03-11, 01:40:05,VALID,916.746,VALID,0,VALID,97.3739,VALID,0,VALID,19.2153,VALID,162,VALID,0.846094,
2011-03-11, 01:41:05,VALID,916.716,VALID,0,VALID,97.3586,VALID,0,VALID,19.2348,VALID,161,VALID,1.36094,
2011-03-11, 01:42:05,VALID,916.681,VALID,0,VALID,97.3663,VALID,0,VALID,19.1958,VALID,161,VALID,0.899609,
2011-03-11, 01:43:05,VALID,916.711,VALID,0,VALID,97.351,VALID,0,VALID,19.2153,VALID,161,VALID,1.39727,
2011-03-11, 01:44:05,VALID,916.693,VALID,0,VALID,97.3586,VALID,0,VALID,19.2153,VALID,161,VALID,0.922656,
2011-03-11, 01:45:05,VALID,916.637,VALID,0,VALID,97.3586,VALID,0,VALID,19.2363,VALID,161,VALID,0.882422,
2011-03-11, 01:46:05,VALID,916.661,VALID,0,VALID,97.3663,VALID,0,VALID,19.1958,VALID,158,VALID,1.28203,
2011-03-11, 01:47:05,VALID,916.617,VALID,0,VALID,97.3586,VALID,0,VALID,19.1763,VALID,138,VALID,0.978125,
2011-03-11, 01:48:05,VALID,916.585,VALID,0,VALID,97.3663,VALID,0,VALID,19.1763,VALID,138,VALID,0.808984,
2011-03-11, 01:49:05,VALID,916.568,VALID,0,VALID,97.3739,VALID,0,VALID,19.1763,VALID,138,VALID,0.866406,
2011-03-11, 01:50:05,VALID,916.586,VALID,0,VALID,97.3663,VALID,0,VALID,19.1763,VALID,138,VALID,0.978125,
2011-03-11, 01:51:05,VALID,916.539,VALID,0,VALID,97.3815,VALID,0,VALID,19.1568,VALID,138,VALID,1.06836,
2011-03-11, 01:52:05,VALID,916.522,VALID,0,VALID,97.3739,VALID,0,VALID,19.1763,VALID,138,VALID,0.674609,
2011-03-11, 01:53:05,VALID,916.488,VALID,0,VALID,97.3815,VALID,0,VALID,19.1568,VALID,164,VALID,0.917969,
2011-03-11, 01:54:05,VALID,916.467,VALID,0,VALID,97.3358,VALID,0,VALID,19.1568,VALID,164,VALID,0.755078,
2011-03-11, 01:55:05,VALID,916.451,VALID,0,VALID,97.3663,VALID,0,VALID,19.1178,VALID,156,VALID,0.933984,
2011-03-11, 01:56:05,VALID,916.447,VALID,0,VALID,97.3739,VALID,0,VALID,19.1373,VALID,155,VALID,1.16562,
2011-03-11, 01:57:05,VALID,916.438,VALID,0,VALID,97.3739,VALID,0,VALID,19.1178,VALID,155,VALID,1.11563,
2011-03-11, 01:58:05,VALID,916.361,VALID,0,VALID,97.3663,VALID,0,VALID,19.1178,VALID,146,VALID,1.46094,
2011-03-11, 01:59:04,VALID,916.38,VALID,0,VALID,97.3663,VALID,0,VALID,19.1178,VALID,152,VALID,1.11055,
2011-03-11, 02:00:04,VALID,916.372,VALID,0,VALID,97.3586,VALID,0,VALID,19.1583,VALID,142,VALID,0.476953,
2011-03-11, 02:01:04,VALID,916.351,VALID,0,VALID,97.3815,VALID,0,VALID,19.1373,VALID,151,VALID,0.707422,
2011-03-11, 02:02:04,VALID,916.343,VALID,0,VALID,97.3663,VALID,0,VALID,19.1373,VALID,151,VALID,0.792188,
2011-03-11, 02:03:04,VALID,916.334,VALID,0,VALID,97.3586,VALID,0,VALID,19.1778,VALID,151,VALID,1.1625,
2011-03-11, 02:04:04,VALID,916.293,VALID,0,VALID,97.3739,VALID,0,VALID,19.1583,VALID,155,VALID,0.826953,
2011-03-11, 02:05:04,VALID,916.272,VALID,0,VALID,97.3586,VALID,0,VALID,19.1373,VALID,147,VALID,1.46211,
2011-03-11, 02:06:04,VALID,916.265,VALID,0,VALID,97.3739,VALID,0,VALID,19.1178,VALID,172,VALID,1.26016,
2011-03-11, 02:07:04,VALID,916.224,VALID,0,VALID,97.3739,VALID,0,VALID,19.1178,VALID,149,VALID,1.14219,
2011-03-11, 02:08:04,VALID,916.255,VALID,0,VALID,97.3891,VALID,0,VALID,19.0593,VALID,163,VALID,1.23281,
2011-03-11, 02:09:04,VALID,916.199,VALID,0,VALID,97.3663,VALID,0,VALID,19.0189,VALID,173,VALID,1.66289,
2011-03-11, 02:10:04,VALID,916.168,VALID,0,VALID,97.3663,VALID,0,VALID,19.0398,VALID,172,VALID,0.197266,
2011-03-11, 02:11:04,VALID,916.165,VALID,0.2,VALID,97.3739,VALID,0,VALID,18.9814,VALID,162,VALID,2.00938,
2011-03-11, 02:12:04,VALID,916.157,VALID,0,VALID,97.3663,VALID,0,VALID,19.0008,VALID,166,VALID,1.50742,
2011-03-11, 02:13:04,VALID,916.141,VALID,0,VALID,97.3815,VALID,0,VALID,18.9424,VALID,164,VALID,1.50625,
2011-03-11, 02:14:04,VALID,916.126,VALID,0,VALID,97.3586,VALID,0,VALID,18.9424,VALID,141,VALID,1.01367,
2011-03-11, 02:15:04,VALID,916.094,VALID,0,VALID,97.3891,VALID,0,VALID,18.9424,VALID,172,VALID,0.60625,
2011-03-11, 02:16:04,VALID,916.114,VALID,0,VALID,97.3891,VALID,0,VALID,18.9424,VALID,151,VALID,0.540625,
2011-03-11, 02:17:04,VALID,916.107,VALID,0,VALID,97.3663,VALID,0,VALID,18.9229,VALID,151,VALID,1.12969,
2011-03-11, 02:18:04,VALID,916.095,VALID,0,VALID,97.3739,VALID,0,VALID,18.9034,VALID,151,VALID,0.860156,
2011-03-11, 02:19:04,VALID,916.079,VALID,0,VALID,97.3891,VALID,0,VALID,18.9034,VALID,151,VALID,0.953906,
2011-03-11, 02:20:04,VALID,916.06,VALID,0,VALID,97.3815,VALID,0,VALID,18.9243,VALID,151,VALID,0.669922,
2011-03-11, 02:21:04,VALID,916.029,VALID,0,VALID,97.3891,VALID,0,VALID,18.9424,VALID,151,VALID,0.895312,
2011-03-11, 02:22:04,VALID,916.034,VALID,0,VALID,97.3968,VALID,0,VALID,18.9619,VALID,151,VALID,0.776953,
2011-03-11, 02:23:04,VALID,916.013,VALID,0,VALID,97.3968,VALID,0,VALID,18.9814,VALID,151,VALID,0.918359,
2011-03-11, 02:24:04,VALID,916.008,VALID,0,VALID,97.3968,VALID,0,VALID,19.0008,VALID,151,VALID,0.943359,
2011-03-11, 02:25:04,VALID,915.978,VALID,0,VALID,97.4044,VALID,0,VALID,19.0203,VALID,151,VALID,0.716797,
2011-03-11, 02:26:04,VALID,915.977,VALID,0,VALID,97.3968,VALID,0,VALID,19.0203,VALID,151,VALID,0.672656,
2011-03-11, 02:27:04,VALID,915.969,VALID,0,VALID,97.3968,VALID,0,VALID,19.0398,VALID,151,VALID,0.805859,
2011-03-11, 02:28:04,VALID,915.958,VALID,0,VALID,97.3815,VALID,0,VALID,19.0203,VALID,151,VALID,0.505859,
2011-03-11, 02:29:04,VALID,915.943,VALID,0,VALID,97.4044,VALID,0,VALID,19.0203,VALID,152,VALID,0.678516,
2011-03-11, 02:30:04,VALID,915.937,VALID,0,VALID,97.4044,VALID,0,VALID,19.0203,VALID,144,VALID,1.1832,
2011-03-11, 02:31:04,VALID,915.918,VALID,0,VALID,97.3815,VALID,0,VALID,19.0608,VALID,148,VALID,0.571484,
2011-03-11, 02:32:04,VALID,915.906,VALID,0,VALID,97.3891,VALID,0,VALID,19.0398,VALID,145,VALID,1.26758,
2011-03-11, 02:33:04,VALID,915.864,VALID,0,VALID,97.3891,VALID,0,VALID,19.0398,VALID,153,VALID,0.426562,
2011-03-11, 02:34:04,VALID,915.861,VALID,0,VALID,97.412,VALID,0,VALID,19.0218,VALID,147,VALID,0.589453,
2011-03-11, 02:35:04,VALID,915.824,VALID,0,VALID,97.3891,VALID,0,VALID,19.0218,VALID,154,VALID,0.517187,
2011-03-11, 02:36:04,VALID,915.829,VALID,0,VALID,97.3968,VALID,0,VALID,19.0023,VALID,154,VALID,0.816016,
2011-03-11, 02:37:04,VALID,915.818,VALID,0,VALID,97.4044,VALID,0,VALID,18.9828,VALID,153,VALID,0.348828,
2011-03-11, 02:38:04,VALID,915.826,VALID,0,VALID,97.3815,VALID,0,VALID,18.9619,VALID,112,VALID,0.707812,
2011-03-11, 02:39:04,VALID,915.781,VALID,0,VALID,97.3891,VALID,0,VALID,18.9619,VALID,164,VALID,0.596094,
2011-03-11, 02:40:04,VALID,915.763,VALID,0,VALID,97.3815,VALID,0,VALID,18.9229,VALID,150,VALID,1.02891,
2011-03-11, 02:41:04,VALID,915.804,VALID,0,VALID,97.3968,VALID,0,VALID,18.9424,VALID,158,VALID,0.539844,
2011-03-11, 02:42:04,VALID,915.773,VALID,0,VALID,97.4044,VALID,0,VALID,18.9424,VALID,164,VALID,0.75625,
2011-03-11, 02:43:04,VALID,915.744,VALID,0,VALID,97.3968,VALID,0,VALID,18.9229,VALID,165,VALID,1.2293,
2011-03-11, 02:44:04,VALID,915.723,VALID,0,VALID,97.412,VALID,0,VALID,18.9424,VALID,165,VALID,1.04297,
2011-03-11, 02:45:04,VALID,915.702,VALID,0,VALID,97.3968,VALID,0,VALID,18.9229,VALID,148,VALID,0.538281,
2011-03-11, 02:46:04,VALID,915.688,VALID,0,VALID,97.4044,VALID,0,VALID,18.9229,VALID,165,VALID,1.08047,
2011-03-11, 02:47:04,VALID,915.674,VALID,0,VALID,97.3815,VALID,0,VALID,18.9034,VALID,156,VALID,1.07813,
2011-03-11, 02:48:04,VALID,915.658,VALID,0,VALID,97.3968,VALID,0,VALID,18.8434,VALID,143,VALID,1.15234,
2011-03-11, 02:49:04,VALID,915.659,VALID,0,VALID,97.412,VALID,0,VALID,18.8449,VALID,155,VALID,0.6625,
2011-03-11, 02:50:04,VALID,915.663,VALID,0,VALID,97.4044,VALID,0,VALID,18.8644,VALID,159,VALID,0.603906,
2011-03-11, 02:51:04,VALID,915.648,VALID,0,VALID,97.3968,VALID,0,VALID,18.824,VALID,146,VALID,1.29219,
2011-03-11, 02:52:04,VALID,915.632,VALID,0,VALID,97.3968,VALID,0.107441,VALID,18.824,VALID,144,VALID,0.609375,
2011-03-11, 02:53:04,VALID,915.639,VALID,0,VALID,97.3815,VALID,0.107441,VALID,18.8059,VALID,145,VALID,0.983594,
2011-03-11, 02:54:04,VALID,915.631,VALID,0,VALID,97.3891,VALID,0,VALID,18.8254,VALID,161,VALID,0.384375,
2011-03-11, 02:55:04,VALID,915.646,VALID,0,VALID,97.4044,VALID,0,VALID,18.7864,VALID,117,VALID,1.04336,
2011-03-11, 02:56:04,VALID,915.626,VALID,0,VALID,97.3968,VALID,0,VALID,18.7864,VALID,117,VALID,0.864453,
2011-03-11, 02:57:04,VALID,915.605,VALID,0,VALID,97.3968,VALID,0,VALID,18.707,VALID,117,VALID,0.897266,
2011-03-11, 02:58:04,VALID,915.594,VALID,0,VALID,97.3815,VALID,0.107441,VALID,18.6875,VALID,117,VALID,0.762891,
2011-03-11, 02:59:04,VALID,915.582,VALID,0,VALID,97.3815,VALID,0,VALID,18.6889,VALID,117,VALID,0.790234,
2011-03-11, 03:00:04,VALID,915.586,VALID,0,VALID,97.3739,VALID,0.107441,VALID,18.629,VALID,117,VALID,0.644531,
2011-03-11, 03:01:04,VALID,915.562,VALID,0,VALID,97.3663,VALID,0,VALID,18.6095,VALID,125,VALID,0.835547,
2011-03-11, 03:02:04,VALID,915.563,VALID,0,VALID,97.3739,VALID,0,VALID,18.6095,VALID,124,VALID,0.473828,
2011-03-11, 03:03:04,VALID,915.579,VALID,0,VALID,97.3815,VALID,0.107441,VALID,18.6109,VALID,125,VALID,0.724609,
2011-03-11, 03:04:04,VALID,915.567,VALID,0,VALID,97.3663,VALID,0.107441,VALID,18.5705,VALID,135,VALID,0.616406,
2011-03-11, 03:05:04,VALID,915.555,VALID,0,VALID,97.3815,VALID,0,VALID,18.5914,VALID,152,VALID,0.73125,
2011-03-11, 03:06:04,VALID,915.553,VALID,0,VALID,97.3739,VALID,0,VALID,18.572,VALID,131,VALID,0.742969,
2011-03-11, 03:07:04,VALID,915.553,VALID,0,VALID,97.3891,VALID,0,VALID,18.5914,VALID,129,VALID,0.192578,
2011-03-11, 03:08:04,VALID,915.558,VALID,0,VALID,97.3891,VALID,0,VALID,18.5914,VALID,129,VALID,0.526563,
2011-03-11, 03:09:04,VALID,915.602,VALID,0,VALID,97.3968,VALID,0,VALID,18.6109,VALID,155,VALID,1.48672,
2011-03-11, 03:10:04,VALID,915.59,VALID,0,VALID,97.4044,VALID,0,VALID,18.6109,VALID,149,VALID,1.01797,
2011-03-11, 03:11:04,VALID,915.565,VALID,0,VALID,97.412,VALID,0,VALID,18.6109,VALID,153,VALID,0.891016,
2011-03-11, 03:12:04,VALID,915.603,VALID,0,VALID,97.4044,VALID,0,VALID,18.6304,VALID,162,VALID,1.52031,
2011-03-11, 03:13:04,VALID,915.6,VALID,0,VALID,97.4044,VALID,0,VALID,18.6304,VALID,162,VALID,0.992969,
2011-03-11, 03:14:04,VALID,915.587,VALID,0,VALID,97.4044,VALID,0.107441,VALID,18.6499,VALID,162,VALID,0.787891,
2011-03-11, 03:15:04,VALID,915.619,VALID,0,VALID,97.3968,VALID,0,VALID,18.6109,VALID,162,VALID,0.921484,
2011-03-11, 03:16:04,VALID,915.615,VALID,0,VALID,97.412,VALID,0,VALID,18.6304,VALID,162,VALID,0.448047,
2011-03-11, 03:17:04,VALID,915.626,VALID,0,VALID,97.4196,VALID,0,VALID,18.5914,VALID,157,VALID,1.16953,
2011-03-11, 03:18:04,VALID,915.621,VALID,0,VALID,97.412,VALID,0,VALID,18.6124,VALID,157,VALID,0.392969,
2011-03-11, 03:19:04,VALID,915.599,VALID,0,VALID,97.4044,VALID,0,VALID,18.5929,VALID,157,VALID,0.403516,
2011-03-11, 03:20:04,VALID,915.601,VALID,0,VALID,97.3815,VALID,0,VALID,18.572,VALID,157,VALID,0.504297,
2011-03-11, 03:21:04,VALID,915.592,VALID,0,VALID,97.3968,VALID,0,VALID,18.5539,VALID,157,VALID,0.401953,
2011-03-11, 03:22:04,VALID,915.567,VALID,0,VALID,97.3663,VALID,0,VALID,18.494,VALID,157,VALID,0.550391,
2011-03-11, 03:23:04,VALID,915.583,VALID,0,VALID,97.3815,VALID,0,VALID,18.4759,VALID,157,VALID,0.691016,
2011-03-11, 03:24:04,VALID,915.545,VALID,0,VALID,97.3815,VALID,0,VALID,18.4564,VALID,157,VALID,0.810156,
2011-03-11, 03:25:04,VALID,915.534,VALID,0,VALID,97.3663,VALID,0,VALID,18.4174,VALID,157,VALID,0.848828,
2011-03-11, 03:26:04,VALID,915.529,VALID,0,VALID,97.3663,VALID,0,VALID,18.338,VALID,157,VALID,1.13086,
2011-03-11, 03:27:04,VALID,915.52,VALID,0,VALID,97.3586,VALID,0,VALID,18.3394,VALID,157,VALID,1.05586,
2011-03-11, 03:28:04,VALID,915.536,VALID,0,VALID,97.3663,VALID,0,VALID,18.3199,VALID,157,VALID,1.17695,
2011-03-11, 03:29:04,VALID,915.524,VALID,0,VALID,97.3739,VALID,0,VALID,18.3199,VALID,157,VALID,1.34414,
2011-03-11, 03:30:04,VALID,915.479,VALID,0,VALID,97.3891,VALID,0,VALID,18.3199,VALID,157,VALID,1.05586,
2011-03-11, 03:31:04,VALID,915.479,VALID,0,VALID,97.3968,VALID,0,VALID,18.299,VALID,156,VALID,1.39336,
2011-03-11, 03:32:04,VALID,915.461,VALID,0,VALID,97.3968,VALID,0,VALID,18.3394,VALID,156,VALID,1.28555,
2011-03-11, 03:33:04,VALID,915.466,VALID,0,VALID,97.3663,VALID,0,VALID,18.299,VALID,156,VALID,1.16562,
2011-03-11, 03:34:04,VALID,915.495,VALID,0,VALID,97.3815,VALID,0,VALID,18.3004,VALID,156,VALID,0.970703,
2011-03-11, 03:35:04,VALID,915.488,VALID,0,VALID,97.3891,VALID,0,VALID,18.2796,VALID,156,VALID,0.834375,
2011-03-11, 03:36:04,VALID,915.483,VALID,0,VALID,97.3739,VALID,0,VALID,18.2809,VALID,155,VALID,0.919531,
2011-03-11, 03:37:04,VALID,915.459,VALID,0,VALID,97.4044,VALID,0,VALID,18.2615,VALID,155,VALID,1.06328,
2011-03-11, 03:38:04,VALID,915.475,VALID,0,VALID,97.3815,VALID,0,VALID,18.2615,VALID,155,VALID,0.892578,
2011-03-11, 03:39:04,VALID,915.464,VALID,0,VALID,97.3739,VALID,0,VALID,18.2615,VALID,115,VALID,1.2832,
2011-03-11, 03:40:04,VALID,915.45,VALID,0,VALID,97.3739,VALID,0,VALID,18.2406,VALID,115,VALID,0.722656,
2011-03-11, 03:41:04,VALID,915.412,VALID,0,VALID,97.3891,VALID,0,VALID,18.2615,VALID,115,VALID,0.920703,
2011-03-11, 03:42:04,VALID,915.429,VALID,0,VALID,97.3663,VALID,0,VALID,18.242,VALID,115,VALID,0.851172,
2011-03-11, 03:43:04,VALID,915.406,VALID,0,VALID,97.3891,VALID,0,VALID,18.2211,VALID,115,VALID,0.810938,